Voltar ao catálogo

STARLINK-36715

AtivoComunicaçõesSSO
NORAD 67716·PAYLOAD·🇺🇸 United States

Lançado Feb 7, 2026 de Vandenberg Space Force Base

Loading…

Próximas Passagens (próximas 24 horas)

TLE

AtualizadoSource: CelesTrak SupGP

Época: Sep 15, 2026, 04:00 UTC

1 67716C 26025Z   26258.16715278 -.00011479  00000+0 -35630-3 0  2583
2 67716  97.2854   8.0800 0001075  97.3365 276.3283 15.33449663    12

Acompanhe STARLINK-36715 em tempo real com AllMySat

Download on the App Store